Home   Weather   Toruń   Past weeks

Flag for Poland Past Weather in Toruń, Poland — Yesterday and Last 2 Weeks

Now
20 °F

Fog.


Feels Like: 15 °F
Forecast: 27 / 35 °F
Wind: 3 mph from Southwest

Location: Torun

Current Time: Jan 19, 2017 at 8:00:50 am

Latest Report: Jan 19, 2017 at 7:00 am


Visibility: 1 mi

Pressure: 30.66 "Hg

Humidity: 94%

Dew Point: 19 °F

Location of ToruńLocation

Past Weather in Toruń — Graph

°F

Toruń Temperature Yesterday

Maximum temperature yesterday: 27 °F (at 12:00 pm)
Minimum temperature yesterday: 18 °F (at 6:00 am)
Average temperature yesterday: 22 °F

High & Low Weather Summary for the Past Weeks

 TemperatureHumidityPressure
High38 °F (Jan 13, 3:00 pm)100% (Jan 17, 9:00 pm)30.76 "Hg (Jan 17, 9:00 pm)
Low0 °F (Jan 7, 3:00 am)41% (Jan 8, 2:00 pm)29.09 "Hg (Jan 4, 2:00 pm)
Average24 °F85%30.09 "Hg
* Reported Jan 4 6:00 am — Jan 19 6:00 am, Toruń, Weather by CustomWeather, © 2017

Note: Actual official high and low records may vary slightly from our data, if they occured in-between our weather recording intervals... More about our weather records

Advertising

Toruń Weather History for the Previous 24 Hours

Scroll right to see more
 ConditionsComfort  
Time TempWeatherWind HumidityBarometerVisibility
6:00 am
Thu, Jan 19
19 °FFog.3 mph95%30.67 "Hg1 mi
5:00 am19 °FFog.2 mph95%30.69 "Hg1 mi
4:00 am19 °FFog.3 mph95%30.71 "Hg1 mi
3:00 am19 °FFog.2 mph95%30.71 "Hg1 mi
2:00 am19 °FFog.3 mph96%30.72 "Hg1 mi
1:00 am19 °FFog.3 mph97%30.73 "Hg1 mi
12:00 am19 °FLow clouds.3 mph97%30.73 "Hg1 mi
11:00 pm
Wed, Jan 18
20 °FFog.3 mph97%30.73 "Hg1 mi
10:00 pm20 °FFog.3 mph97%30.73 "Hg1 mi
9:00 pm21 °FFog.3 mph96%30.74 "Hg1 mi
8:00 pm21 °FFog.3 mph96%30.74 "Hg1 mi
7:00 pm22 °FLow clouds.3 mph98%30.74 "Hg1 mi
6:00 pm22 °FFog.2 mph97%30.74 "Hg1 mi
5:00 pm23 °FFog.2 mph95%30.75 "Hg1 mi
4:00 pm24 °FFog.2 mph95%30.75 "Hg1 mi
3:00 pm24 °FFog.3 mph94%30.74 "Hg1 mi
2:00 pm25 °FFog.2 mph92%30.74 "Hg2 mi
1:00 pm27 °FFog.2 mph91%30.74 "Hg2 mi
12:00 pm27 °FFog.2 mph98%30.75 "Hg3 mi
11:00 am24 °FFog.2 mph98%30.76 "Hg2 mi
10:00 am22 °FFog.2 mph97%30.76 "Hg2 mi
9:00 am20 °FFog.1 mph97%30.76 "Hg1 mi
8:00 am20 °FFog.1 mph100%30.74 "Hg1 mi
Weather by CustomWeather, © 2017

See weather overviewHow to use our weather pages